Flag for Martinique Weather past 2 weeks in Fort-de-France, Martinique

79 °F

Passing clouds.

Feels Like: 82 °F
Forecast: 79 / 90 °F
Wind: 6 mph from Northeast

Location: Le Lamentin Airport

Current Time: Oct 7, 2015 at 6:31:32 AM

Latest Report: Oct 7, 2015 at 6:00 AM

Visibility: N/A

Pressure: 29.92 "Hg

Humidity: 89%

Dew point: 75 °F

Location of Fort-de-FranceLocation

Historic Weather in Fort-de-France — Graph


Fort-de-France temperature yesterday

Maximum temperature yesterday: 90 °F (at 9:30 AM)
Minimum temperature yesterday: 82 °F (at 12:00 AM)
Average temperature yesterday: 85 °F

Past Weeks' High & Low Weather Summary

High95 °F (Oct 1, 1:30 PM)100% (Sep 27, 5:00 AM)30.01 "Hg (Sep 27, 5:00 AM)
Low73 °F (Sep 23, 4:00 AM)47% (Sep 25, 11:00 AM)29.77 "Hg (Sep 30, 3:00 PM)
Average83 °F76%29.89 "Hg
* Reported Sep 22 5:00 AM — Oct 7 5:30 AM, Fort-de-France, Weather by CustomWeather, © 2015

Note: Actual official high and low records may vary slightly from our data, if they occured in-between our weather recording intervals... More about our weather records


Fort-de-France weather history for previous 24 hours

Time TempWeatherWind HumidityBarometerVisibility
5:30 AM
Wed, Oct 7
79 °FClear.5 mph89%29.89 "HgN/A
5:00 AM79 °FPassing clouds.6 mph89%29.89 "HgN/A
4:30 AM79 °FPassing clouds.5 mph89%29.89 "HgN/A
4:00 AM79 °FClear.6 mph84%29.89 "HgN/A
3:30 AM81 °FClear.7 mph79%29.86 "HgN/A
3:00 AM81 °FPassing clouds.7 mph79%29.86 "HgN/A
2:30 AM82 °FPassing clouds.10 mph74%29.89 "HgN/A
2:00 AM82 °FPartly cloudy.7 mph79%29.89 "HgN/A
1:30 AM82 °FPassing clouds.8 mph79%29.89 "HgN/A
1:00 AM82 °FPassing clouds.6 mph79%29.89 "HgN/A
12:30 AM82 °FPartly cloudy.9 mph79%29.92 "HgN/A
12:00 AM82 °FPassing clouds.8 mph74%29.92 "HgN/A
11:30 PM
Tue, Oct 6
82 °FPassing clouds.9 mph74%29.92 "HgN/A
11:00 PM82 °FPassing clouds.12 mph74%29.95 "HgN/A
10:30 PM82 °FPartly cloudy.8 mph79%29.95 "HgN/A
10:00 PM82 °FPassing clouds.10 mph74%29.95 "HgN/A
9:30 PM82 °FPassing clouds.10 mph74%29.95 "HgN/A
9:00 PM82 °FPassing clouds.9 mph79%29.98 "HgN/A
8:30 PM82 °FPassing clouds.12 mph74%29.98 "HgN/A
8:00 PM82 °FPassing clouds.12 mph79%29.95 "HgN/A
7:30 PM82 °FPassing clouds.9 mph74%29.95 "HgN/A
7:00 PM82 °FPassing clouds.8 mph79%29.95 "HgN/A
6:30 PM82 °FLight rain. Partly cloudy.13 mph79%29.95 "HgN/A
6:00 PM84 °FPassing clouds.13 mph70%29.92 "HgN/A
5:30 PM84 °FPassing clouds.15 mph70%29.92 "HgN/A
5:00 PM84 °FPassing clouds.17 mph70%29.92 "HgN/A
4:30 PM84 °FPassing clouds.17 mph74%29.92 "HgN/A
4:00 PM84 °FBroken clouds.16 mph74%29.92 "HgN/A
3:30 PM86 °FPartly sunny.16 mph70%29.92 "HgN/A
3:00 PM90 °FPartly sunny.15 mph63%29.92 "HgN/A
2:30 PM90 °FScattered clouds.18 mph63%29.92 "HgN/A
2:00 PM90 °FBroken clouds.17 mph63%29.92 "HgN/A
1:30 PM90 °FScattered clouds.17 mph63%29.95 "HgN/A
1:00 PM90 °FBroken clouds.16 mph63%29.95 "HgN/A
12:30 PM90 °FBroken clouds.16 mph63%29.95 "HgN/A
12:00 PM90 °FBroken clouds.18 mph63%29.98 "HgN/A
11:30 AM90 °FPartly sunny.17 mph63%29.98 "HgN/A
11:00 AM88 °FBroken clouds.17 mph62%29.98 "HgN/A
10:30 AM90 °FPartly sunny.18 mph63%30.01 "HgN/A
10:00 AM90 °FPartly sunny.17 mph63%30.01 "HgN/A
9:30 AM90 °FScattered clouds.18 mph59%30.01 "HgN/A
9:00 AM88 °FPartly sunny.16 mph66%30.01 "HgN/A
8:30 AM88 °FBroken clouds.16 mph66%30.01 "HgN/A
8:00 AM86 °FBroken clouds.16 mph70%30.01 "HgN/A
7:30 AM84 °FScattered clouds.15 mph74%29.98 "HgN/A
7:00 AM84 °FScattered clouds.10 mph74%29.98 "HgN/A
6:30 AM82 °FPassing clouds.10 mph74%29.98 "HgN/A
6:00 AM82 °FPassing clouds.14 mph74%29.98 "HgN/A
Weather by CustomWeather, © 2015

See weather overviewHow to use our weather pages